[[{"header":{"parameterUnit":"m.s-1","parameterCategory":1,"la1":30.2991,"la2":30.254,"lo1":-89.0895,"lo2":-89.0444,"dy":0.0017,"dx":0.0017,"nx":28,"ny":28,"refTime":"2023-10-25T03:00:00:Z","depth":0,"parameterNumber":2,"parameterNumberName":"U-component_of_WINDS"},"data":[0,0,0,0,0,0,0,0,0,0,0,0,0,0,0,0,0,0,0,0,0,0,0,0,0,0,0,0,0,0,0,0,0,0,0,0,0,0,0,0,0,0,0,0,0,0,0,0,0,0,0,0,0,0,0,0,0,0,-6.6151,-6.6152,0,-6.6198,-6.6198,-6.6199,-6.6078,-6.6075,-6.6071,-6.6067,-6.6112,-6.6117,-6.6121,0,0,0,0,0,0,0,0,0,0,0,0,0,-6.5956,-6.5961,-6.6151,-6.6152,-6.6152,-6.6198,-6.6198,-6.6199,-6.6079,-6.6074,-6.607,-6.6066,-6.6111,-6.6116,-6.6122,0,0,0,0,0,0,0,0,0,0,0,0,0,-6.6026,-6.5962,-6.6151,-6.6098,-6.6094,-6.6198,-6.6198,-6.6199,-6.608,-6.6074,-6.6069,-6.6063,-6.6109,-6.6116,-6.6123,-6.6279,0,0,-6.6144,-6.6147,0,0,0,0,0,0,0,0,-6.6022,-6.6033,-6.6105,-6.6102,-6.6097,-6.6127,-6.6146,-6.6226,-6.6081,-6.6085,-6.6067,-6.6061,-6.6121,-6.6127,-6.6148,-6.6281,-6.6283,-6.6145,-6.6149,-6.6152,-6.6154,0,0,0,0,0,0,0,-6.6017,-6.603,-6.6169,-6.6106,-6.6102,-6.6071,-6.6075,-6.6161,-6.6134,-6.6084,-6.6076,-6.6083,-6.6118,-6.6142,-6.6148,-6.6284,-6.6145,-6.6151,-6.6155,-6.6158,-6.6548,-6.6554,0,0,0,0,0,0,-6.602,-6.6027,-6.6168,-6.6171,-6.6045,-6.608,-6.6084,-6.6123,-6.6133,-6.6129,-6.6088,-6.6077,-6.6132,-6.614,-6.6149,-6.6332,-6.6152,-6.6159,-6.6163,-6.6542,-6.6549,-6.6556,0,0,0,0,0,0,-6.6016,-6.6033,-6.6166,-6.6097,-6.6111,-6.6089,-6.6134,-6.6127,-6.615,-6.6136,-6.613,-6.6117,-6.6128,-6.6139,-6.6248,-6.6332,-6.6162,-6.6168,-6.6535,-6.6544,-6.6553,-6.67,0,0,0,0,0,0,-6.6011,-6.6033,-6.6092,-6.6099,-6.6116,-6.6265,-6.6139,-6.6132,-6.6163,-6.6149,-6.6161,-6.6158,-6.6125,-6.6238,-6.6255,-6.6338,-6.6174,-6.6527,-6.6539,-6.655,-6.6687,-6.6713,-6.6735,0,0,0,0,0,-6.6004,-6.6131,-6.6096,-6.6113,-6.6189,-6.627,-6.6279,-6.6239,-6.617,-6.6229,-6.622,-6.6157,-6.6321,-6.625,-6.6268,-6.6355,-6.6521,-6.6536,-6.6549,-6.6676,-6.6708,-6.6734,0,0,0,0,0,0,-6.6132,-6.613,-6.6091,-6.6224,-6.6248,-6.6249,-6.6322,-6.6273,-6.6316,-6.6302,-6.625,-6.6254,-6.6372,-6.6375,-6.6296,-6.6508,-6.6409,-6.6428,-6.65,-6.653,-6.6553,-6.6548,-6.618,0,0,0,0,0,-6.6176,-6.6242,-6.6237,-6.6355,-6.6369,-6.6345,-6.6378,-6.6345,-6.6367,-6.6376,-6.6375,-6.6399,-6.6455,-6.6493,-6.6545,-6.6689,-6.6689,-6.6758,-6.6782,-6.6801,-6.6816,-6.6892,-6.6922,-6.6601,-6.6601,-6.6601,0,0,-6.6266,-6.6274,-6.6318,-6.6381,-6.6395,-6.6464,-6.6353,-6.643,-6.6481,-6.6388,-6.6489,-6.6491,-6.6514,-6.6641,-6.6696,-6.6647,-6.6906,-6.6819,-6.6835,-6.6838,-6.6909,-6.6939,-6.6966,-6.6611,-6.6609,-6.6607,0,0,-6.6465,-6.6479,-6.6578,-6.6596,-6.6621,-6.6604,-6.6629,-6.6638,-6.6635,-6.6738,-6.667,-6.6729,-6.6828,-6.6847,-6.6869,-6.7081,-6.7024,-6.71,-6.7222,-6.7296,-6.7322,-6.7344,-6.7417,-6.7444,-6.7115,-6.7116,-6.7116,0,-6.6574,-6.6675,-6.6635,-6.6717,-6.6746,-6.6669,-6.6768,-6.6787,-6.6828,-6.6849,-6.6794,-6.6917,-6.6927,-6.7057,-6.7109,-6.7131,-6.7156,-6.7095,-6.7322,-6.7343,-6.7363,-6.7432,-6.746,-6.7125,-6.7124,-6.7123,-6.7122,0,-6.6807,-6.6879,-6.6956,-6.6998,-6.7037,-6.7127,-6.71,-6.7144,-6.711,-6.7099,-6.7205,-6.7215,-6.7267,-6.7297,-6.7264,-6.7423,-6.7391,-6.7331,-6.723,-6.7403,-6.7467,-6.7493,-6.7137,-6.7134,-6.7131,-6.7129,0,0,-6.7082,-6.7104,-6.7132,-6.7151,-6.7175,-6.7229,-6.7317,-6.737,-6.7407,-6.744,-6.7511,-6.7599,-6.7543,-6.7569,-6.7538,-6.7604,-6.7769,-6.7535,-6.7534,-6.7575,-6.7943,-6.7986,-6.8017,-6.7734,-6.7739,-6.7743,-6.794,0,-6.7276,-6.7427,-6.7395,-6.7543,-6.7609,-6.7539,-6.7615,-6.7638,-6.7632,-6.7686,-6.7679,-6.7741,-6.7664,-6.7679,-6.7742,-6.7736,-6.7842,-6.7722,-6.7797,-6.7801,-6.779,-6.8051,-6.8096,-6.8282,-6.7965,-6.797,-6.7973,0,-6.7521,-6.7564,-6.772,-6.7734,-6.776,-6.783,-6.7876,-6.793,-6.7955,-6.7946,-6.7978,-6.7935,-6.8022,-6.7925,-6.8044,-6.7963,-6.7993,-6.7995,-6.8002,-6.8003,-6.7894,-6.8057,-6.834,-6.8367,-6.8012,-6.8009,-6.8006,0,-6.7703,-6.78,-6.7905,-6.7924,-6.7944,-6.7994,-6.8005,-6.8025,-6.806,-6.8101,-6.8122,-6.8173,-6.82,-6.824,-6.8212,-6.8145,-6.8336,-6.8236,-6.8328,-6.8329,-6.8367,-6.8364,-6.8656,-6.8394,-6.8394,-6.8393,-6.8393,0,-6.792,-6.8017,-6.7987,-6.8051,-6.8158,-6.8122,-6.8228,-6.8231,-6.825,-6.8313,-6.8257,-6.8318,-6.8279,-6.8337,-6.8316,-6.8417,-6.843,-6.8424,-6.8417,-6.8427,-6.8427,-6.8442,-6.8427,-6.8401,-6.8399,-6.8398,-6.8396,0,-6.8138,-6.8122,-6.8232,-6.8244,-6.825,-6.8328,-6.8337,-6.8397,-6.8389,-6.847,-6.8487,-6.8474,-6.8539,-6.8517,-6.8586,-6.8573,-6.87,-6.8678,-6.8691,-6.8684,-6.8776,-6.8767,-6.9084,-6.9123,-6.884,-6.8843,-6.8845,0,-6.8275,-6.8348,-6.837,-6.8409,-6.8425,-6.8488,-6.8524,-6.8492,-6.8531,-6.8568,-6.8623,-6.8684,-6.873,-6.8838,-6.8834,-6.8887,-6.8863,-6.8972,-6.887,-6.8879,-6.8861,-6.8856,-6.8862,-6.899,-6.8993,-6.8996,-6.8998,0,-6.852,-6.851,-6.8563,-6.8616,-6.8661,-6.87,-6.8734,-6.8769,-6.874,-6.8787,-6.8854,-6.889,-6.8963,-6.9023,-6.9073,-6.9083,-6.9035,-6.9031,-6.9054,-6.9063,-6.9066,-6.9063,-6.8742,-6.9022,-6.902,-6.9018,-6.9016,-6.9015,-6.8699,-6.8761,-6.8786,-6.8849,-6.8872,-6.8906,-6.8963,-6.8964,-6.9019,-6.9076,-6.9055,-6.9132,-6.9157,-6.9218,-6.9236,-6.9295,-6.9253,-6.9288,-6.9296,-6.9304,-6.9315,-6.9062,-6.9305,-6.9304,-6.9303,-6.9303,-6.9302,0,-6.8938,-6.8952,-6.901,-6.9061,-6.9111,-6.9066,-6.9102,-6.9146,-6.9215,-6.9243,-6.9291,-6.9369,-6.9428,-6.9431,-6.9487,-6.9534,-6.9513,-6.9549,-6.9543,-6.9546,-6.935,-6.9323,-6.9564,-6.9564,-6.9564,-6.9564,-6.9564,-6.9564,-6.9068,-6.917,-6.9163,-6.9277,-6.929,-6.9366,-6.939,-6.9422,-6.9444,-6.9534,-6.9584,-6.9586,-6.9604,-6.9662,-6.9714,-6.9714,-6.9735,-6.9779,-6.9769,-6.9586,-6.9559,-6.9534,-6.9508,-6.9785,-6.9785,-6.9959,-6.9961,-6.9962]},{"header":{"parameterUnit":"m.s-1","parameterCategory":1,"la1":30.2991,"la2":30.254,"lo1":-89.0895,"lo2":-89.0444,"dy":0.0017,"dx":0.0017,"nx":28,"ny":28,"refTime":"2023-10-25T03:00:00:Z","depth":0,"parameterNumber":3,"parameterNumberName":"V-component_of_WINDS"},"data":[0,0,0,0,0,0,0,0,0,0,0,0,0,0,0,0,0,0,0,0,0,0,0,0,0,0,0,0,0,0,0,0,0,0,0,0,0,0,0,0,0,0,0,0,0,0,0,0,0,0,0,0,0,0,0,0,0,0,2.1868,2.1868,0,2.1897,2.1897,2.1897,2.189,2.1889,2.1888,2.1888,2.1914,2.1915,2.1917,0,0,0,0,0,0,0,0,0,0,0,0,0,2.1804,2.1805,2.1867,2.1868,2.1868,2.1897,2.1897,2.1897,2.189,2.1889,2.1888,2.1888,2.1914,2.1915,2.1917,0,0,0,0,0,0,0,0,0,0,0,0,0,2.1832,2.1806,2.1867,2.1868,2.1868,2.1896,2.1897,2.1897,2.189,2.1889,2.1888,2.1887,2.1913,2.1915,2.1917,2.1945,0,0,2.1923,2.1923,0,0,0,0,0,0,0,0,2.1831,2.1834,2.1868,2.1868,2.1868,2.1889,2.1884,2.1913,2.189,2.1882,2.1888,2.1887,2.1906,2.1909,2.1916,2.1946,2.1948,2.1923,2.1924,2.1925,2.1925,0,0,0,0,0,0,0,2.1829,2.1833,2.1879,2.1868,2.1869,2.1866,2.1869,2.189,2.1898,2.1882,2.1882,2.1885,2.1906,2.1914,2.1916,2.1948,2.1923,2.1924,2.1925,2.1926,2.2006,2.2007,0,0,0,0,0,0,2.1827,2.1832,2.1878,2.188,2.1847,2.1868,2.1872,2.1883,2.1898,2.1899,2.1886,2.1885,2.1911,2.1914,2.1917,2.1953,2.1925,2.1926,2.1927,2.2005,2.2006,2.2007,0,0,0,0,0,0,2.1825,2.1831,2.1877,2.1856,2.1861,2.187,2.1883,2.1884,2.1892,2.1901,2.1902,2.1893,2.1911,2.1915,2.1939,2.1954,2.1927,2.1929,2.2004,2.2005,2.2007,2.2024,0,0,0,0,0,0,2.1824,2.183,2.1841,2.1856,2.1863,2.1899,2.1884,2.1885,2.1895,2.1894,2.1907,2.1909,2.191,2.1936,2.1941,2.1956,2.193,2.2003,2.2005,2.2006,2.2022,2.2026,2.2029,0,0,0,0,0,2.1821,2.1844,2.1842,2.1848,2.1877,2.19,2.1903,2.1906,2.1897,2.1908,2.1914,2.1908,2.1952,2.1939,2.1944,2.196,2.2002,2.2004,2.2006,2.202,2.2025,2.2029,0,0,0,0,0,0,2.1828,2.1845,2.1844,2.1872,2.1885,2.1898,2.1912,2.191,2.1924,2.1923,2.1924,2.1927,2.1953,2.1958,2.1944,2.1989,2.1975,2.1979,2.1984,2.1989,2.1992,2.199,2.1932,0,0,0,0,0,2.1834,2.1852,2.1865,2.1888,2.1895,2.1903,2.1913,2.1914,2.1927,2.1932,2.194,2.1952,2.1968,2.1979,2.1994,2.2023,2.2026,2.2036,2.204,2.2043,2.2046,2.2063,2.2068,2.2015,2.2015,2.2015,0,0,2.1843,2.1855,2.1866,2.189,2.19,2.1919,2.1907,2.1926,2.194,2.1934,2.1959,2.1965,2.1979,2.2006,2.2019,2.2012,2.2061,2.2046,2.2048,2.2049,2.2066,2.2071,2.2076,2.2016,2.2016,2.2016,0,0,2.1872,2.1882,2.1904,2.1915,2.1931,2.1937,2.1942,2.1957,2.1962,2.1987,2.1983,2.1999,2.2027,2.2038,2.2047,2.2082,2.2078,2.2087,2.2105,2.2123,2.2127,2.2131,2.2144,2.2149,2.209,2.209,2.209,0,2.1881,2.191,2.1915,2.1936,2.1947,2.1945,2.1967,2.1977,2.1997,2.2005,2.1997,2.2034,2.2043,2.2074,2.2083,2.209,2.2096,2.2086,2.2126,2.213,2.2133,2.2147,2.2152,2.2091,2.2091,2.2091,2.2091,0,2.1923,2.1943,2.1958,2.1981,2.1994,2.2015,2.2022,2.2035,2.2036,2.2042,2.2069,2.2079,2.2098,2.2106,2.2105,2.2137,2.2133,2.2126,2.2112,2.214,2.2152,2.2157,2.2093,2.2092,2.2092,2.2092,0,0,2.1954,2.1981,2.1986,2.1998,2.2017,2.2032,2.2054,2.2075,2.2086,2.21,2.2119,2.2144,2.2139,2.2149,2.215,2.2165,2.2195,2.2157,2.2157,2.2164,2.2232,2.2238,2.2244,2.2193,2.2194,2.2194,2.2232,0,2.1985,2.2025,2.2031,2.2066,2.2086,2.2085,2.2104,2.2118,2.2125,2.2143,2.215,2.2168,2.2159,2.2166,2.2181,2.2188,2.2209,2.2186,2.221,2.2211,2.2207,2.225,2.2256,2.229,2.2237,2.2237,2.2238,0,2.2025,2.2044,2.2082,2.2101,2.211,2.2127,2.2148,2.2164,2.218,2.2184,2.2198,2.2198,2.2221,2.2206,2.2238,2.2223,2.2233,2.2239,2.224,2.2242,2.2226,2.2255,2.2301,2.2307,2.2245,2.2245,2.2244,0,2.2046,2.208,2.2108,2.2117,2.214,2.2153,2.2163,2.2178,2.2191,2.2209,2.2217,2.2236,2.2247,2.2262,2.2267,2.2256,2.23,2.2285,2.2304,2.2304,2.2313,2.2312,2.2363,2.2319,2.2319,2.2318,2.2318,0,2.208,2.2103,2.2118,2.2135,2.2162,2.2169,2.2195,2.2204,2.2219,2.2238,2.2238,2.2255,2.2261,2.228,2.2284,2.2311,2.2315,2.2319,2.232,2.232,2.2319,2.2326,2.2324,2.232,2.232,2.2319,2.2319,0,2.2107,2.2118,2.2148,2.2169,2.2175,2.2194,2.2211,2.2228,2.2236,2.226,2.2266,2.2278,2.23,2.2307,2.2333,2.2336,2.2368,2.2366,2.2363,2.2363,2.2382,2.238,2.2439,2.2448,2.2397,2.2398,2.2398,0,2.2128,2.2147,2.217,2.2184,2.2195,2.2217,2.2231,2.2239,2.2253,2.2275,2.2289,2.2312,2.233,2.2366,2.2376,2.2396,2.2396,2.2415,2.2399,2.2398,2.2397,2.2396,2.2399,2.2418,2.2418,2.2419,2.2419,0,2.2165,2.217,2.2191,2.2215,2.2232,2.225,2.2268,2.2279,2.229,2.2306,2.233,2.2345,2.2373,2.2395,2.2417,2.2426,2.2425,2.2425,2.243,2.243,2.2428,2.243,2.2372,2.2423,2.2423,2.2422,2.2422,2.2422,2.219,2.2208,2.2228,2.2252,2.2267,2.2285,2.2302,2.2314,2.2334,2.236,2.2363,2.2389,2.2406,2.2435,2.2446,2.2466,2.2461,2.2469,2.2471,2.2473,2.2475,2.2425,2.247,2.247,2.247,2.247,2.247,0,2.2228,2.2242,2.2264,2.2291,2.231,2.2309,2.233,2.2345,2.2369,2.2386,2.2406,2.2434,2.2457,2.247,2.2493,2.2507,2.2507,2.2512,2.2511,2.2514,2.2478,2.2471,2.2512,2.2512,2.2512,2.2512,2.2512,2.2512,2.225,2.228,2.2289,2.2327,2.2341,2.2368,2.238,2.2396,2.2411,2.2443,2.2463,2.2472,2.2488,2.2513,2.2534,2.2537,2.2545,2.2552,2.2555,2.2521,2.2516,2.2512,2.2506,2.2554,2.2554,2.259,2.259,2.259]}]]